Regional Weather Roundup
Issued by NWS Spokane, WA

Home | Current Version | Previous Version | Text Only | Print | Product List | Glossary On
Versions: 1 2 3 4 5 6 7 8 9 10 11 12 13 14 15 16 17 18 19 20 21 22 23 24 25 26 27 28 29 30 31 32 33 34 35 36 37 38 39 40 41 42 43 44 45 46 47 48 49 50
870
NZUS01 KOTX 171425
RWROTX

Eastern Washington/Northern Idaho Roundup
National Weather Service, Spokane WA
700 AM PDT TUE OCT 17 2017

Note: "fair" indicated few or no clouds below 12,000 feet with no
significant weather and/or obstructions to visibility.

...Northeast Washington and Northern Idaho Panhandle...

CITY           SKY/WX    TMP DP  RH WIND       PRES   REMARKS
Spokane Intl   PTCLDY    45  32  60 S15       29.94F
Spokane Downto CLEAR     38  35  89 NE5       29.95F
Coeur d Alene  CLEAR     44  36  73 S10       29.96F
Deer Park      CLEAR     30  28  92 MISG      29.95F
Sandpoint      CLEAR     30  30 100 CALM      29.95F

...Southeast Washington and southern Idaho Panhandle...

CITY           SKY/WX    TMP DP  RH WIND       PRES   REMARKS
Walla Walla    MOCLDY    49  36  61 SE5       29.96F
Pullman/Moscow CLEAR     48  31  51 SE9       30.01F
Lewiston       CLEAR     46  35  65 NE5       30.00F
Lowell           N/A     36  35  96 N5        30.15F
Grangeville    FAIR      39  30  70 SE8       30.03F

...Columbia Basin...

CITY           SKY/WX    TMP DP  RH WIND       PRES   REMARKS
Ephrata        CLEAR     35  29  78 NE7       29.90F WCI  29
Moses Lake     CLEAR     35  30  82 S9        29.91F WCI  28
Pasco          MOCLDY    41  37  86 NE5       29.94F
Richland       PTSUNNY   56  38  50 SW6       29.93F
Hermiston      PTCLDY    39  34  82 S6        29.97F
Pendleton      MOCLDY    42  32  67 S6        29.98S

...East Slopes Cascades...

CITY           SKY/WX    TMP DP  RH WIND       PRES   REMARKS
The Dalles     PTCLDY    40  38  93 SE8       30.02F
Yakima         CLEAR     29  24  82 W3        29.95F
Ellensburg     CLEAR     34  29  82 E3        29.93F
Stampede Pass  PTCLDY    48  27  44 VRB6      29.95F
Wenatchee      CLEAR     42  37  82 E7        29.87F
Omak           CLEAR     52  37  56 S13G20    29.80F
Chelan           N/A     48  37  66 SE13        N/A
Sunnyside      MOSUNNY   31  29  95 CALM      29.95F

...Southern British Columbia...

CITY           SKY/WX    TMP DP  RH WIND       PRES   REMARKS
Penticton      MOCLDY    57  37  47 S30G37    29.68F
Castlegar      PTCLDY    46  36  66 SE7       29.85F
Cranbrook      MOCLDY    52  28  40 SE14G20   29.85F
Osoyoos          N/A     55  37  50 E2          N/A
Creston          N/A     45  34  65 NE3         N/A

...Western Montana...

CITY           SKY/WX    TMP DP  RH WIND       PRES   REMARKS
Kalispell      SUNNY     30  28  92 SW8       29.95F WCI  22
Libby            N/A     28  28 100 CALM      29.94F
Missoula       CLEAR     28  25  88 CALM      30.07F

...Neighboring Cities...

CITY           SKY/WX    TMP DP  RH WIND       PRES   REMARKS
Seattle        CLOUDY    52  47  83 S12       29.95F
Portland       CLOUDY    47  47 100 SE7       30.09S FOG
Boise            N/A     42  28  57 SE7       30.18F
Great Falls    CLOUDY    50  21  32 S12       29.93F
Calgary        MOCLDY    45  32  61 S5        29.51F



USA.gov is the U.S. government's official web portal to all federal, state and local government web resources and services.